星链-32477 (STARLINK-32477)

导读

STARLINK-32477是美国SpaceX星链星座的成员卫星,于2024年11月21日发射升空。星链项目旨在打造全球卫星互联网星座,为全球范围提供低延迟宽带互联网服务,该卫星入轨后将融入已有星链网络,进一步补充星座规模,拓展全球覆盖与服务能力。

基本信息
目录编号:
62038
目录名称:
STARLINK-32477
国际标识:
2024-216G
轨道中心:
EARTH
卫星名称:
星链-32477
卫星全名:
星链-32477 (STARLINK-32477)
卫星状态:
已陨落 最后检测时间 2026-07-29
发射日期:
2024-11-21 UTC
国别 :
美国 (US)
星等 :
--
该卫星已列入 空间交会检测服务 Space Conjunction Data Service (SCDS) ,当前飞行风险评估等级: 无高风险
轨道信息
数据来源 国际轨道数据
星历时间: 2026-07-29T12:22:25+0800
轨道信息已过期44天
半长轴: 6584.724km
偏心率: 0.0032382
轨道倾角: 42.986°
近地点辐角 214.221°
升交点赤经 122.765°
平近点角 145.659°
近地点: 185.264km
远地点: 227.91km
周期: 88.627分钟
每日圈数: 16.247871
详细信息
固有亮度:
5
最大亮度:
2.5
卫星平台:
Starlink V1.0
覆盖范围:
全球
运营商:
太空探索技术公司
运营商所在国:
美国
制造商(研发单位):
太空探索技术公司
制造商所在国:
美国
使用方式:
暂无
卫星简介
Starlink 计划是 SpaceX 推出的全球卫星互联网项目,通过发射低轨道卫星,为全球尤其是偏远地区提供高速、低延迟的互联网服务。自 2019 年起,Starlink 已部署数千颗卫星,旨在缩小全球数字鸿沟,推动互联网普及。该项目还为军事、航空等行业提供通信支持,带来广泛经济效益。
与全量物体交会距离演化趋势
与全量物体交会风险概率演化趋势